Date,TemperatureHighF,TemperatureAvgF,TemperatureLowF,DewpointHighF,DewpointAvgF,DewpointLowF,HumidityHigh,HumidityAvg,HumidityLow,PressureMaxIn,PressureMinIn,WindSpeedMaxMPH,WindSpeedAvgMPH,GustSpeedMaxMPH,PrecipitationSumIn
2013-2-2,32,25,21,-100,-100,-100,0,0,100,0.00,40.00,0,-999,0,0.00
2013-2-3,36,30,20,-100,-100,-100,0,0,100,0.00,40.00,0,-999,0,0.00
2013-2-4,37,33,28,-100,-100,-100,0,0,100,0.00,40.00,0,-999,0,0.00
2013-2-5,36,33,28,-100,-100,-100,0,0,100,0.00,40.00,0,-999,0,0.00
2013-2-6,27,27,27,-100,-100,-100,0,0,100,0.00,40.00,0,-999,0,0.00
2013-2-7,38,23,16,-100,-100,-100,0,0,100,0.00,40.00,0,-999,0,0.00
2013-2-8,30,23,18,-100,-100,-100,0,0,100,0.00,40.00,0,-999,0,0.00
2013-2-9,33,20,13,-100,-100,-100,0,0,100,0.00,40.00,0,-999,0,0.00
2013-2-10,14,14,13,-100,-100,-100,0,0,100,0.00,40.00,0,-999,0,0.03
2013-2-11,28,16,4,-100,-100,-100,0,0,100,0.00,40.00,0,-999,0,0.00
2013-2-12,34,23,14,-100,-100,-100,0,0,100,0.00,40.00,0,-999,0,0.00
2013-2-13,26,23,19,-100,-100,-100,0,0,100,0.00,40.00,0,-999,0,0.00
2013-2-14,23,19,16,-100,-100,-100,0,0,100,0.00,40.00,0,-999,0,0.04
2013-2-15,29,28,25,-100,-100,-100,0,0,100,0.00,40.00,0,-999,0,0.01
2013-2-16,43,32,25,-100,-100,-100,0,0,100,0.00,40.00,0,-999,0,0.00
2013-2-17,35,29,23,-100,-100,-100,0,0,100,0.00,40.00,0,-999,0,0.00
2013-2-18,29,23,21,-100,-100,-100,0,0,100,0.00,40.00,0,-999,0,0.02
2013-2-19,30,23,20,-100,-100,-100,0,0,100,0.00,40.00,0,-999,0,0.00
2013-2-20,30,22,11,-100,-100,-100,0,0,100,0.00,40.00,0,-999,0,0.00
2013-2-21,29,17,10,-100,-100,-100,0,0,100,0.00,40.00,0,-999,0,0.00
2013-2-22,29,23,16,-100,-100,-100,0,0,100,0.00,40.00,0,-999,0,0.00
2013-2-23,29,24,22,-100,-100,-100,0,0,100,0.00,40.00,0,-999,0,0.00
2013-2-24,30,25,17,-100,-100,-100,0,0,100,0.00,40.00,0,-999,0,0.00
2013-2-25,16,16,16,-100,-100,-100,0,0,100,0.00,40.00,0,-999,0,0.00
2013-2-26,24,24,24,-100,-100,-100,0,0,100,0.00,40.00,0,-999,0,0.00
2013-2-27,38,25,11,-100,-100,-100,0,0,100,0.00,40.00,0,-999,0,0.00
2013-2-28,34,23,12,-100,-100,-100,0,0,100,0.00,40.00,0,-999,0,0.01